Wind_Speed
65 66 68 69 69 69 70 70 70 69 68 68 71 72 73 72 69 67 65 62 59 55 51 48 46 44 44 45 50 56 63 71 80 92 107 118 125 128
66 66 68 68 69 69 69 69 70 70 70 67 68 69 70 69 66 64 62 60 56 53 49 47 44 42 41 43 47 52 59 67 76 88 101 113 120 125
65 65 67 67 68 68 68 68 68 70 70 67 66 66 66 65 62 61 60 57 54 51 48 46 43 40 38 40 45 51 58 66 75 85 98 110 118 122
64 65 65 66 66 67 66 66 67 69 70 68 65 64 63 61 59 58 56 54 52 49 47 45 42 39 37 39 45 52 60 67 74 82 94 107 116 121
63 63 64 65 65 65 65 65 66 67 68 67 64 62 60 58 57 55 53 51 49 47 46 44 41 38 36 38 45 53 61 68 74 81 92 104 114 119
62 62 63 63 63 63 63 64 65 65 65 65 63 60 58 57 56 54 50 48 47 46 44 42 40 37 35 37 45 54 62 69 74 80 91 103 112 118
59 60 61 61 61 62 62 62 63 63 63 63 62 59 56 56 54 52 49 46 44 45 43 41 39 35 34 36 45 55 62 70 75 81 90 102 111 118
58 58 59 59 60 60 60 60 61 62 62 61 60 57 55 54 52 49 48 46 42 42 43 39 36 32 32 34 44 55 63 71 77 81 90 101 110 118
56 57 58 58 58 58 58 58 58 59 60 59 58 55 54 53 50 47 46 45 43 41 40 36 33 30 29 33 43 55 64 71 77 82 89 100 109 116
55 56 56 56 57 57 56 55 56 56 56 56 55 53 52 50 48 46 45 43 40 39 38 34 30 27 27 31 43 57 66 71 76 82 89 100 108 116
53 54 54 54 55 56 55 54 54 53 53 53 52 51 50 47 46 45 43 41 38 37 35 31 27 24 23 29 43 58 67 72 77 83 89 99 108 115
51 52 53 53 54 54 53 53 52 52 52 50 49 48 47 45 44 43 41 39 37 33 31 28 25 21 20 26 40 59 68 72 77 84 90 99 107 115
50 51 51 52 52 52 51 51 51 50 50 48 46 45 44 42 41 41 39 37 34 31 28 25 21 18 18 24 38 57 68 74 78 84 91 99 106 114
49 50 50 50 50 50 50 49 49 49 48 46 44 43 41 40 39 38 36 34 31 28 25 22 18 15 15 21 36 54 68 76 80 85 93 98 105 113
48 48 48 49 49 48 48 47 47 46 45 43 42 41 39 38 37 34 33 31 28 25 22 18 15 12 13 19 33 51 65 74 80 85 92 97 104 112
46 46 47 47 47 46 45 45 45 44 43 41 40 39 38 37 35 32 30 29 26 22 19 15 12 10 11 17 29 47 63 72 79 85 91 96 103 111
45 45 45 45 44 44 44 43 43 42 41 40 38 37 36 34 33 30 28 27 24 20 17 13 10 8 10 16 25 42 59 70 78 85 91 97 105 111
43 42 43 43 42 42 42 41 41 41 39 38 37 35 33 32 30 28 26 24 22 18 14 11 8 8 9 14 24 38 55 68 77 84 90 96 104 112
41 41 41 41 40 40 39 39 39 39 37 36 34 32 30 29 27 25 24 22 19 16 12 9 7 7 9 14 22 34 50 65 75 82 88 95 102 110
39 39 39 38 38 38 37 37 37 37 35 33 31 29 28 26 24 22 21 20 17 13 10 7 6 8 10 14 20 30 44 60 74 81 87 92 99 107
36 36 36 35 35 35 35 35 34 34 32 30 28 27 25 23 21 20 19 18 15 11 7 5 6 8 11 15 19 27 38 53 69 79 86 91 97 106
34 33 33 33 33 32 32 32 31 31 30 28 26 24 22 21 19 18 17 15 13 9 6 4 5 8 12 16 20 26 35 48 63 76 84 90 96 104
31 30 30 30 30 29 29 29 29 28 27 26 24 22 20 19 17 16 15 13 11 8 5 5 6 8 12 17 21 26 34 45 58 70 80 86 94 101
Wind_Direction
304 305 305 306 305 305 306 307 308 310 311 312 311 311 311 311 310 309 309 309 307 304 299 294 286 275 262 250 237 228 222 216 214 211 208 205 203 202
304 304 305 305 305 306 307 308 309 311 313 314 313 312 311 311 310 310 310 309 308 305 300 295 288 277 262 248 232 224 218 213 211 208 206 203 202 200
304 304 305 305 306 306 307 308 310 312 314 315 314 314 313 312 311 310 311 310 309 307 302 296 290 278 261 244 229 221 213 208 207 206 204 201 200 199
303 304 305 305 306 307 308 309 311 312 314 316 316 315 314 312 312 312 311 310 309 307 304 299 292 279 260 241 226 218 210 205 204 204 202 200 198 198
303 304 304 306 306 307 308 310 311 313 315 316 317 316 314 313 313 313 312 310 309 308 305 300 293 280 259 241 225 214 207 203 202 201 200 198 197 197
303 304 305 306 307 307 309 310 312 314 315 316 317 317 316 315 314 314 313 312 310 308 307 302 294 280 259 240 222 210 204 201 199 199 198 197 196 195
302 303 305 306 307 308 309 311 313 314 315 317 318 318 317 317 316 316 315 314 312 310 308 304 296 280 258 240 220 208 203 199 197 197 197 195 195 194
301 303 305 307 308 309 310 312 314 315 316 317 319 319 318 318 317 317 317 315 314 311 309 307 298 283 258 238 218 205 201 197 195 195 195 194 194 193
302 303 305 306 308 309 311 313 314 315 317 318 319 320 319 319 318 317 317 316 315 313 311 309 299 284 259 235 215 203 197 194 193 193 194 193 192 192
302 303 304 306 308 309 311 313 314 315 316 318 319 319 319 319 318 318 318 317 316 314 312 309 301 284 259 232 213 201 195 193 192 192 193 192 191 191
302 303 305 307 308 310 312 314 315 316 317 318 318 319 320 320 319 319 319 318 317 315 312 309 302 286 257 230 211 200 195 192 192 191 192 192 191 191
302 303 305 307 308 310 312 314 315 317 318 318 319 319 320 320 320 320 319 318 318 316 312 309 303 288 256 227 209 199 195 192 190 190 191 191 191 190
302 303 305 306 308 310 313 314 316 318 319 319 319 319 320 321 321 320 320 320 319 318 314 309 303 288 259 223 207 197 195 192 190 189 190 191 191 190
302 303 305 306 308 311 313 315 316 318 320 320 320 320 321 322 322 321 321 321 320 319 315 310 303 287 256 222 205 197 194 192 190 189 190 191 191 189
301 303 305 307 309 311 313 315 317 319 320 320 321 321 322 323 323 321 320 321 320 318 315 310 302 283 248 221 204 197 194 192 191 190 190 191 190 189
301 302 304 307 309 311 313 315 317 319 321 321 321 322 322 323 323 322 320 321 320 317 315 310 300 277 241 219 205 197 193 192 191 191 191 191 190 188
300 302 304 307 309 311 313 315 318 320 321 321 322 322 323 323 323 322 321 321 320 317 312 307 295 273 238 214 204 198 194 192 191 191 191 192 191 188
299 302 304 307 309 311 313 315 318 320 321 321 322 322 323 324 323 323 322 322 320 316 309 299 283 258 232 213 202 198 195 193 191 190 191 191 190 189
298 301 304 307 309 311 314 316 318 320 321 321 322 322 323 324 324 324 325 324 321 316 307 290 267 241 223 210 200 197 195 193 191 191 191 191 191 190
297 300 304 307 310 312 314 317 319 321 322 322 323 323 323 324 324 325 326 326 323 316 303 281 252 227 213 204 198 195 195 194 191 191 191 191 191 190
295 300 304 307 310 313 315 318 320 323 323 323 324 323 323 323 323 324 325 326 325 316 300 272 238 215 204 199 195 193 193 193 191 190 190 191 191 190
295 299 303 307 311 314 317 320 322 324 325 325 325 324 323 323 323 324 325 326 325 316 293 258 224 206 199 196 195 193 191 191 190 190 191 191 191 190
295 300 304 308 312 315 318 321 323 325 326 326 326 325 324 324 325 325 325 325 322 313 287 248 216 203 198 196 195 193 191 190 189 190 190 190 191 191
Height
5571 5562 5553 5543 5533 5524 5514 5504 5495 5487 5479 5464 5447 5432 5417 5405 5394 5382 5372 5361 5350 5339 5329 5320 5312 5306 5303 5303 5306 5312 5321 5333 5347 5365 5388 5415 5445 5476
5556 5546 5537 5527 5517 5507 5497 5486 5476 5466 5458 5448 5432 5417 5402 5389 5377 5365 5355 5344 5334 5324 5314 5306 5298 5292 5289 5289 5292 5299 5308 5320 5335 5351 5372 5398 5427 5457
5540 5530 5520 5510 5501 5491 5480 5470 5459 5448 5438 5430 5415 5401 5387 5374 5362 5350 5339 5328 5319 5310 5300 5292 5284 5279 5276 5276 5279 5286 5295 5308 5322 5338 5358 5384 5412 5440
5524 5515 5505 5495 5485 5475 5465 5454 5443 5432 5421 5411 5401 5386 5373 5360 5348 5337 5326 5315 5305 5297 5287 5278 5271 5266 5263 5264 5267 5274 5284 5296 5311 5327 5347 5371 5397 5425
5508 5499 5490 5480 5470 5460 5450 5439 5428 5417 5405 5394 5384 5372 5359 5347 5335 5325 5313 5303 5293 5284 5275 5266 5259 5253 5251 5252 5256 5264 5274 5286 5300 5316 5337 5360 5387 5414
5493 5484 5475 5465 5456 5446 5436 5425 5414 5403 5391 5380 5369 5358 5346 5334 5322 5312 5302 5292 5281 5272 5263 5255 5248 5242 5240 5241 5245 5253 5263 5277 5292 5308 5328 5351 5377 5403
5479 5470 5461 5451 5442 5432 5422 5411 5400 5389 5378 5366 5355 5344 5333 5321 5310 5299 5289 5281 5272 5260 5252 5244 5236 5232 5230 5231 5236 5243 5254 5267 5283 5300 5320 5343 5368 5394
5464 5456 5447 5438 5428 5418 5408 5398 5387 5376 5365 5353 5343 5331 5321 5309 5298 5288 5278 5270 5262 5253 5241 5235 5227 5222 5220 5221 5226 5234 5245 5259 5275 5293 5313 5334 5359 5387
5450 5442 5434 5425 5415 5406 5396 5386 5375 5363 5352 5342 5331 5320 5309 5299 5288 5279 5269 5259 5251 5242 5232 5226 5219 5214 5212 5213 5217 5226 5237 5252 5268 5287 5306 5328 5353 5381
5437 5429 5421 5412 5403 5393 5384 5375 5364 5353 5342 5331 5320 5310 5299 5288 5278 5269 5260 5251 5243 5233 5224 5217 5212 5207 5205 5206 5210 5219 5231 5246 5263 5281 5301 5323 5347 5374
5424 5416 5408 5400 5391 5381 5373 5364 5354 5343 5332 5321 5310 5300 5289 5279 5269 5260 5252 5243 5236 5227 5218 5211 5206 5202 5200 5201 5205 5213 5226 5240 5257 5276 5296 5317 5341 5368
5412 5404 5396 5388 5379 5370 5361 5352 5343 5333 5322 5312 5302 5291 5281 5272 5262 5252 5244 5236 5228 5221 5213 5206 5201 5197 5196 5197 5201 5209 5221 5236 5253 5272 5291 5312 5335 5361
5399 5392 5384 5376 5368 5359 5350 5341 5332 5323 5313 5303 5293 5283 5274 5264 5255 5246 5237 5229 5222 5215 5209 5202 5198 5194 5192 5194 5198 5206 5218 5232 5249 5268 5287 5307 5330 5356
5387 5380 5372 5365 5356 5348 5339 5331 5322 5313 5303 5294 5284 5275 5266 5257 5249 5240 5232 5224 5217 5211 5204 5199 5195 5192 5191 5192 5196 5203 5214 5228 5245 5263 5282 5303 5325 5350
5375 5368 5361 5354 5346 5338 5330 5321 5313 5304 5295 5285 5277 5268 5259 5251 5243 5235 5227 5220 5213 5207 5202 5197 5194 5191 5190 5191 5194 5202 5212 5225 5242 5259 5278 5299 5321 5346
5363 5357 5350 5343 5336 5328 5320 5312 5304 5295 5286 5278 5269 5261 5252 5245 5237 5229 5222 5216 5210 5204 5200 5196 5193 5191 5191 5192 5195 5201 5210 5223 5239 5257 5275 5295 5317 5342
5352 5346 5339 5333 5326 5318 5311 5303 5295 5287 5278 5270 5262 5254 5246 5239 5231 5224 5218 5212 5206 5202 5198 5195 5192 5191 5191 5192 5196 5201 5210 5222 5237 5255 5273 5293 5314 5339
5340 5335 5329 5323 5316 5309 5302 5294 5286 5279 5271 5263 5255 5247 5240 5233 5227 5220 5214 5209 5204 5199 5196 5194 5192 5192 5192 5193 5197 5202 5210 5222 5236 5253 5271 5291 5313 5336
5329 5324 5319 5313 5307 5300 5293 5286 5279 5271 5263 5256 5248 5241 5235 5229 5222 5217 5211 5206 5201 5198 5195 5193 5192 5192 5193 5195 5198 5203 5211 5222 5235 5252 5270 5290 5312 5334
5319 5315 5309 5304 5298 5292 5285 5278 5271 5264 5256 5249 5242 5236 5230 5224 5219 5214 5209 5204 5200 5196 5194 5193 5192 5193 5194 5196 5200 5205 5212 5222 5236 5252 5269 5289 5310 5331
5309 5305 5300 5295 5289 5284 5277 5271 5264 5257 5250 5243 5237 5231 5226 5221 5216 5211 5207 5202 5199 5196 5194 5193 5193 5194 5195 5198 5202 5206 5213 5223 5235 5250 5267 5285 5306 5327
5299 5296 5291 5287 5282 5276 5270 5264 5258 5251 5245 5238 5233 5227 5222 5218 5213 5209 5205 5201 5198 5195 5194 5194 5194 5195 5197 5199 5203 5208 5215 5224 5235 5249 5265 5283 5302 5326
5291 5287 5283 5279 5274 5269 5264 5258 5252 5246 5240 5234 5229 5224 5219 5215 5211 5207 5204 5200 5197 5195 5194 5194 5195 5196 5198 5201 5205 5210 5217 5225 5236 5250 5266 5283 5303 5323